Flag for Czech Republic Weather past 2 weeks in Brno, Czech Republic

Now
69 °F

Passing clouds.


Feels Like: 69 °F
Forecast: 63 / 81 °F
Wind: 3 mph from East

Location: Brno / Turany

Current Time: Jul 30, 2014 at 12:59:31 AM

Latest Report: Jul 30, 2014 at 12:00 AM


Visibility: 11 mi

Pressure: 29.74 "Hg

Humidity: 82%

Dew point: 63 °F

Location of BrnoLocation

Historic Weather in Brno — Graph

°F

Brno temperature yesterday

Maximum temperature yesterday: 79 °F (at 3:00 PM)
Minimum temperature yesterday: 64 °F (at 6:00 AM)
Average temperature yesterday: 71 °F

Past Weeks' High & Low Weather Summary

 TemperatureHumidityPressure
High92 °F (Jul 20, 5:00 PM)92% (Jul 21, 6:00 PM)30.13 "Hg (Jul 21, 6:00 PM)
Low58 °F (Jul 26, 6:00 AM)23% (Jul 17, 4:00 PM)29.66 "Hg (Jul 21, 3:00 PM)
Average73 °F62%29.93 "Hg
* Reported Jul 14 11:00 PM — Jul 29 11:00 PM, Brno, Weather by CustomWeather, © 2014

Note: Actual official high and low records may vary slightly from our data, if they occured in-between our weather recording intervals... More about our weather records

Advertising

Brno weather history for previous 24 hours

 ConditionsComfort  
Time TempWeatherWind HumidityBarometerVisibility
11:00 PM
Jul 29
71 °FPassing clouds.3 mph76%29.74 "Hg16 mi
10:00 PM71 °FPassing clouds.3 mph71%29.74 "Hg12 mi
9:00 PM73 °FPassing clouds.3 mph69%29.73 "Hg11 mi
8:00 PM76 °FScattered clouds.6 mph61%29.72 "Hg16 mi
7:00 PM78 °FScattered clouds.7 mph53%29.72 "Hg19 mi
6:00 PM78 °FScattered clouds.7 mph52%29.72 "Hg22 mi
5:00 PM79 °FPartly sunny.6 mph51%29.72 "Hg19 mi
4:00 PM74 °FSprinkles. Partly sunny.6 mph68%29.75 "Hg16 mi
3:00 PM79 °FPartly sunny.7 mph55%29.75 "Hg10 mi
2:00 PM76 °FOvercast.8 mph60%29.77 "Hg12 mi
1:00 PM78 °FOvercast.3 mph60%29.78 "Hg12 mi
12:00 PM75 °FOvercast.6 mph70%29.79 "Hg9 mi
11:00 AM71 °FOvercast.6 mph77%29.81 "Hg9 mi
10:00 AM69 °FOvercast.3 mph80%29.81 "Hg9 mi
9:00 AM68 °FOvercast.5 mph85%29.81 "Hg9 mi
8:00 AM67 °FOvercast.3 mph85%29.81 "Hg7 mi
7:00 AM66 °FOvercast.3 mph87%29.80 "Hg9 mi
6:00 AM64 °FPartly sunny.3 mph90%29.81 "Hg11 mi
5:00 AM65 °FPassing clouds.3 mph87%29.82 "Hg12 mi
4:00 AM65 °FOvercast.3 mph90%29.81 "Hg16 mi
3:00 AM65 °FOvercast.2 mph86%29.81 "Hg19 mi
2:00 AM66 °FOvercast.2 mph85%29.82 "Hg19 mi
1:00 AM66 °FOvercast.2 mph84%29.83 "Hg19 mi
12:00 AM67 °FOvercast.2 mph83%29.83 "Hg19 mi
Weather by CustomWeather, © 2014

See weather overviewHow to use our weather pages